[[{"header":{"parameterUnit":"m.s-1","parameterCategory":1,"la1":30.2991,"la2":30.254,"lo1":-89.0895,"lo2":-89.0444,"dy":0.0017,"dx":0.0017,"nx":28,"ny":28,"refTime":"2025-07-07T03:00:00:Z","depth":0,"parameterNumber":2,"parameterNumberName":"U-component_of_WINDS"},"data":[0,0,0,0,0,0,0,0,0,0,0,0,0,0,0,0,0,0,0,0,0,0,0,0,0,0,0,0,0,0,0,0,0,0,0,0,0,0,0,0,0,0,0,0,0,0,0,0,0,0,0,0,0,0,0,0,0,0,1.1037,1.1038,0,1.1107,1.1107,1.1108,1.1119,1.1119,1.1118,1.1118,1.1193,1.1195,1.1198,0,0,0,0,0,0,0,0,0,0,0,0,0,1.0917,1.0919,1.1037,1.1038,1.1039,1.1107,1.1108,1.1108,1.112,1.1119,1.1118,1.1117,1.1192,1.1195,1.1198,0,0,0,0,0,0,0,0,0,0,0,0,0,1.0976,1.092,1.1037,1.1052,1.1054,1.1106,1.1108,1.1109,1.112,1.1119,1.1118,1.1117,1.1191,1.1194,1.1198,1.1241,0,0,1.121,1.1212,0,0,0,0,0,0,0,0,1.0973,1.0981,1.1049,1.1051,1.1054,1.1103,1.1093,1.1153,1.112,1.1095,1.1118,1.1116,1.1164,1.117,1.1185,1.1244,1.1248,1.121,1.1213,1.1214,1.1216,0,0,0,0,0,0,0,1.0969,1.0978,1.1065,1.105,1.1053,1.1057,1.1064,1.1104,1.1134,1.1097,1.1098,1.1106,1.1165,1.1181,1.1187,1.1249,1.121,1.1214,1.1216,1.1218,1.1348,1.1349,0,0,0,0,0,0,1.0961,1.0974,1.1062,1.1067,1.101,1.106,1.1068,1.1088,1.1133,1.1139,1.1107,1.1106,1.1175,1.1182,1.119,1.1244,1.1214,1.1218,1.122,1.1347,1.1348,1.135,0,0,0,0,0,0,1.0959,1.0969,1.106,1.1021,1.1032,1.1063,1.1086,1.109,1.1107,1.1141,1.1146,1.1118,1.1175,1.1184,1.1228,1.1247,1.122,1.1223,1.1346,1.1348,1.1349,1.1352,0,0,0,0,0,0,1.0955,1.0968,1.0984,1.1021,1.1034,1.1096,1.1087,1.1092,1.1113,1.1113,1.1153,1.1158,1.1175,1.1222,1.1232,1.1251,1.1226,1.1344,1.1347,1.1349,1.135,1.1353,1.1356,0,0,0,0,0,1.0951,1.0982,1.0984,1.0995,1.1054,1.1097,1.1105,1.1122,1.1114,1.1131,1.1153,1.1157,1.1243,1.1227,1.1238,1.1259,1.1343,1.1346,1.1348,1.1349,1.1353,1.1356,0,0,0,0,0,0,1.0947,1.0987,1.099,1.1034,1.1062,1.1098,1.112,1.1125,1.1157,1.1156,1.1177,1.1186,1.1229,1.1248,1.123,1.1303,1.1293,1.1297,1.1289,1.1293,1.1296,1.1291,1.123,0,0,0,0,0,1.0951,1.0981,1.1015,1.105,1.1064,1.1089,1.1109,1.1119,1.1149,1.1162,1.1187,1.1217,1.1251,1.1273,1.1306,1.1352,1.1362,1.1372,1.1375,1.1378,1.1382,1.141,1.1415,1.1358,1.1358,1.1358,0,0,1.096,1.0986,1.1004,1.105,1.1073,1.1105,1.1099,1.1133,1.1157,1.1167,1.121,1.123,1.1265,1.1311,1.1333,1.1328,1.14,1.1381,1.1382,1.1386,1.1413,1.1419,1.1424,1.136,1.136,1.1359,0,0,1.0993,1.1015,1.1048,1.107,1.1105,1.1121,1.1129,1.1165,1.1179,1.1222,1.123,1.126,1.1317,1.1343,1.1363,1.1406,1.1412,1.1416,1.1432,1.1459,1.1464,1.1468,1.1485,1.1491,1.142,1.142,1.142,0,1.1001,1.1048,1.1064,1.1098,1.1119,1.1128,1.1162,1.1184,1.1227,1.1242,1.1236,1.1309,1.1333,1.1386,1.1397,1.1412,1.1423,1.1412,1.1461,1.1466,1.147,1.1487,1.1493,1.1421,1.1421,1.142,1.142,0,1.1056,1.1089,1.1111,1.1153,1.1176,1.121,1.1232,1.1254,1.1263,1.1281,1.1326,1.1355,1.1395,1.1408,1.1417,1.1462,1.1459,1.1457,1.1447,1.1476,1.1492,1.1498,1.1421,1.1421,1.1421,1.1421,0,0,1.109,1.1139,1.1148,1.1167,1.1205,1.1232,1.1266,1.1304,1.1323,1.1353,1.1384,1.1432,1.1431,1.1454,1.1466,1.149,1.1524,1.1485,1.1487,1.1493,1.1579,1.1581,1.1588,1.1528,1.1529,1.153,1.1576,0,1.1129,1.119,1.1206,1.1258,1.129,1.1299,1.1329,1.1357,1.1375,1.1405,1.1425,1.146,1.1454,1.1469,1.1492,1.1515,1.1542,1.1512,1.1559,1.156,1.1551,1.1596,1.1599,1.1641,1.1582,1.1583,1.1584,0,1.1183,1.1213,1.1269,1.1304,1.1318,1.1345,1.1381,1.1409,1.1442,1.1453,1.1479,1.1489,1.1527,1.1514,1.1568,1.1547,1.1567,1.1581,1.1583,1.159,1.1575,1.1606,1.1655,1.1662,1.1594,1.1593,1.1592,0,1.1204,1.1259,1.1299,1.1315,1.1357,1.1376,1.1395,1.1426,1.1448,1.148,1.1495,1.1531,1.1552,1.1581,1.1601,1.1589,1.1654,1.1642,1.1666,1.1666,1.1681,1.168,1.1736,1.1691,1.1691,1.1691,1.169,0,1.1247,1.1282,1.131,1.1335,1.1374,1.1392,1.143,1.1449,1.1477,1.1507,1.1517,1.1546,1.157,1.1602,1.1618,1.1662,1.167,1.1682,1.1686,1.1682,1.1681,1.1697,1.1695,1.1692,1.1692,1.1692,1.1691,0,1.1278,1.1298,1.1343,1.1379,1.1389,1.1416,1.1447,1.1473,1.1491,1.1529,1.1539,1.1568,1.1606,1.1629,1.1677,1.1688,1.1737,1.1739,1.1726,1.1728,1.1752,1.175,1.1821,1.1832,1.1778,1.1779,1.1779,0,1.1305,1.1332,1.137,1.139,1.1409,1.1441,1.1464,1.1483,1.1506,1.1545,1.1567,1.1605,1.1637,1.1699,1.1725,1.1763,1.1767,1.1789,1.1773,1.1768,1.177,1.1769,1.1772,1.1793,1.1793,1.1794,1.1794,0,1.1352,1.136,1.1391,1.1426,1.1453,1.1481,1.151,1.1527,1.1551,1.1576,1.1615,1.164,1.169,1.1729,1.1769,1.179,1.1797,1.1798,1.1807,1.1804,1.1796,1.1802,1.1736,1.1797,1.1797,1.1797,1.1796,1.1796,1.1383,1.1407,1.1438,1.1473,1.1496,1.1523,1.1549,1.157,1.1602,1.1643,1.1653,1.1694,1.1727,1.1781,1.1803,1.1837,1.1833,1.1844,1.1848,1.185,1.1852,1.1788,1.1844,1.1844,1.1844,1.1844,1.1844,0,1.1431,1.1451,1.1483,1.1523,1.1551,1.1552,1.1585,1.1608,1.1644,1.1674,1.1705,1.1751,1.1789,1.1818,1.1857,1.1879,1.1883,1.1889,1.1888,1.1894,1.1852,1.1842,1.1885,1.1885,1.1885,1.1885,1.1885,1.1885,1.146,1.1502,1.1514,1.1568,1.1588,1.1628,1.1647,1.1672,1.1696,1.1746,1.1777,1.1795,1.1825,1.1867,1.1903,1.191,1.1925,1.1931,1.1939,1.19,1.1896,1.1892,1.1883,1.1933,1.1933,1.1978,1.1978,1.1979]},{"header":{"parameterUnit":"m.s-1","parameterCategory":1,"la1":30.2991,"la2":30.254,"lo1":-89.0895,"lo2":-89.0444,"dy":0.0017,"dx":0.0017,"nx":28,"ny":28,"refTime":"2025-07-07T03:00:00:Z","depth":0,"parameterNumber":3,"parameterNumberName":"V-component_of_WINDS"},"data":[0,0,0,0,0,0,0,0,0,0,0,0,0,0,0,0,0,0,0,0,0,0,0,0,0,0,0,0,0,0,0,0,0,0,0,0,0,0,0,0,0,0,0,0,0,0,0,0,0,0,0,0,0,0,0,0,0,0,1.4419,1.442,0,1.4511,1.4512,1.4513,1.4525,1.4524,1.4524,1.4523,1.4622,1.4626,1.4629,0,0,0,0,0,0,0,0,0,0,0,0,0,1.426,1.4262,1.4419,1.442,1.4421,1.451,1.4512,1.4513,1.4525,1.4524,1.4523,1.4522,1.4621,1.4625,1.463,0,0,0,0,0,0,0,0,0,0,0,0,0,1.4338,1.4263,1.4418,1.4438,1.444,1.451,1.4512,1.4513,1.4526,1.4524,1.4523,1.4522,1.462,1.4625,1.463,1.4689,0,0,1.4646,1.4648,0,0,0,0,0,0,0,0,1.4333,1.4344,1.4434,1.4437,1.444,1.4505,1.4492,1.4572,1.4526,1.4494,1.4523,1.4521,1.4585,1.4593,1.4613,1.4693,1.4698,1.4647,1.465,1.4652,1.4653,0,0,0,0,0,0,0,1.4328,1.434,1.4455,1.4435,1.4439,1.4444,1.4453,1.4507,1.4546,1.4496,1.4497,1.4508,1.4586,1.4608,1.4616,1.4699,1.4646,1.4651,1.4654,1.4656,1.4833,1.4834,0,0,0,0,0,0,1.4318,1.4335,1.4452,1.4458,1.4382,1.4448,1.4458,1.4485,1.4545,1.4553,1.4509,1.4508,1.46,1.4609,1.4619,1.4692,1.4652,1.4657,1.466,1.4831,1.4833,1.4835,0,0,0,0,0,0,1.4315,1.4328,1.4449,1.4397,1.4412,1.4452,1.4482,1.4488,1.451,1.4554,1.4562,1.4524,1.4599,1.4612,1.4671,1.4696,1.4659,1.4664,1.4829,1.4832,1.4834,1.4838,0,0,0,0,0,0,1.431,1.4327,1.4348,1.4397,1.4415,1.4497,1.4483,1.4491,1.4518,1.4518,1.457,1.4578,1.4599,1.4663,1.4676,1.4702,1.4668,1.4827,1.4831,1.4833,1.4836,1.484,1.4844,0,0,0,0,0,1.4304,1.4347,1.4349,1.4364,1.4442,1.4499,1.4509,1.4531,1.452,1.4543,1.4571,1.4576,1.4691,1.4669,1.4684,1.4712,1.4826,1.483,1.4833,1.4834,1.4839,1.4844,0,0,0,0,0,0,1.4302,1.4354,1.4357,1.4416,1.4453,1.4501,1.453,1.4536,1.4578,1.4576,1.4603,1.4615,1.4673,1.4698,1.4674,1.4772,1.4758,1.4764,1.4753,1.4759,1.4763,1.4756,1.4672,0,0,0,0,0,1.4308,1.4348,1.4391,1.444,1.4457,1.449,1.4516,1.4529,1.4569,1.4585,1.4618,1.4658,1.4703,1.4732,1.4776,1.4839,1.4852,1.4866,1.487,1.4873,1.4879,1.4915,1.4922,1.4846,1.4846,1.4846,0,0,1.4322,1.4355,1.4379,1.444,1.447,1.4512,1.4503,1.4548,1.458,1.4593,1.465,1.4676,1.4722,1.4784,1.4813,1.4807,1.4902,1.4878,1.488,1.4884,1.492,1.4927,1.4933,1.4849,1.4848,1.4848,0,0,1.4368,1.4397,1.444,1.447,1.4514,1.4536,1.4546,1.4593,1.461,1.4668,1.4678,1.4717,1.4794,1.4827,1.4854,1.4912,1.4919,1.4926,1.4947,1.4982,1.4988,1.4994,1.5016,1.5023,1.4931,1.4931,1.4931,0,1.438,1.4442,1.4462,1.4507,1.4534,1.4545,1.459,1.4619,1.4676,1.4695,1.4687,1.4784,1.4816,1.4886,1.49,1.4921,1.4935,1.492,1.4986,1.4991,1.4997,1.5018,1.5026,1.4932,1.4932,1.4932,1.4932,0,1.4455,1.4498,1.4528,1.4581,1.4612,1.4657,1.4685,1.4714,1.4725,1.4748,1.4808,1.4846,1.4898,1.4916,1.4927,1.4988,1.4982,1.498,1.4966,1.5004,1.5025,1.5033,1.4933,1.4933,1.4932,1.4932,0,0,1.4504,1.4566,1.4577,1.4602,1.4651,1.4686,1.4732,1.4781,1.4806,1.4845,1.4885,1.495,1.4947,1.4978,1.4993,1.5024,1.5069,1.5018,1.5019,1.5027,1.5139,1.5141,1.515,1.5073,1.5075,1.5076,1.5136,0,1.4557,1.4636,1.4655,1.4725,1.4765,1.4776,1.4816,1.4852,1.4875,1.4914,1.494,1.4985,1.4978,1.4997,1.5027,1.5057,1.5092,1.5053,1.5113,1.5115,1.5102,1.5161,1.5164,1.5218,1.5144,1.5145,1.5146,0,1.4629,1.4668,1.474,1.4785,1.4803,1.4838,1.4885,1.4922,1.4963,1.4978,1.5011,1.5024,1.5074,1.5056,1.5127,1.5099,1.5125,1.5143,1.5146,1.5153,1.5133,1.5171,1.5236,1.5244,1.5159,1.5158,1.5157,0,1.4658,1.4729,1.4781,1.4802,1.4855,1.488,1.4903,1.4943,1.4972,1.5013,1.5032,1.508,1.5106,1.5143,1.5169,1.5154,1.5238,1.5222,1.5253,1.5252,1.5271,1.5269,1.5341,1.5285,1.5285,1.5285,1.5285,0,1.4716,1.476,1.4795,1.4828,1.4878,1.49,1.495,1.4975,1.501,1.5049,1.5062,1.5098,1.5129,1.5171,1.5191,1.5247,1.5258,1.5273,1.5278,1.5272,1.5271,1.5291,1.5288,1.5287,1.5287,1.5286,1.5286,0,1.4757,1.4782,1.484,1.4885,1.4898,1.4933,1.4973,1.5006,1.5028,1.5077,1.509,1.5127,1.5176,1.5205,1.5267,1.5281,1.5343,1.5346,1.5329,1.5331,1.536,1.5358,1.5449,1.5462,1.5396,1.5396,1.5397,0,1.4793,1.4827,1.4875,1.4901,1.4924,1.4966,1.4995,1.5018,1.5048,1.5098,1.5125,1.5175,1.5216,1.5294,1.5328,1.5376,1.5381,1.5409,1.5389,1.5382,1.5383,1.5381,1.5385,1.5414,1.5414,1.5415,1.5415,0,1.4854,1.4864,1.4904,1.4948,1.4981,1.5018,1.5054,1.5075,1.5105,1.5138,1.5187,1.5219,1.5282,1.5332,1.5383,1.541,1.5418,1.5421,1.5431,1.5426,1.5415,1.5422,1.534,1.5419,1.5419,1.5418,1.5418,1.5418,1.4894,1.4925,1.4964,1.5008,1.5037,1.5071,1.5104,1.513,1.5171,1.5223,1.5235,1.5287,1.5329,1.5398,1.5426,1.5468,1.5464,1.5478,1.5482,1.5485,1.5486,1.5407,1.5478,1.5478,1.5478,1.5478,1.5478,0,1.4957,1.4982,1.5022,1.5071,1.5106,1.5108,1.5149,1.5179,1.5224,1.5261,1.5301,1.5358,1.5406,1.5443,1.5493,1.552,1.5525,1.5533,1.5532,1.5538,1.5487,1.5474,1.5528,1.5528,1.5528,1.5527,1.5527,1.5527,1.4993,1.5046,1.5061,1.5129,1.5154,1.5204,1.5227,1.5259,1.5289,1.5352,1.5391,1.5414,1.5451,1.5504,1.5549,1.5559,1.5577,1.5584,1.5594,1.5547,1.5541,1.5536,1.5524,1.5587,1.5587,1.5642,1.5642,1.5643]}]]